When you browse on this site, cookies collect data to enhance your experience and personalize the content and advertising you see.
Visit our Privacy Policy to learn more. By continuing to use the site, you agree to this use of cookies and data.
  • In United Kingdom
  • List of Countries
  • For 7 days
  • Water Temperature
  • Satellite Maps
  • Weather Map
  • Weather Widgets
  • user-avatar
    Login

    Hourly Weather Biatris

    Today, 22 March, Friday

    Time Temperature Precipitation Wind Pressure Humidity
    00:00 +17°C° 0 mm 2 mps 652 mmHg 91%
    01:00 +17°C° 0 mm 2 mps 652 mmHg 93%
    02:00 +17°C° 0 mm 2 mps 652 mmHg 96%
    03:00 +17°C° 0 mm 2 mps 652 mmHg 96%
    04:00 +16°C° 0 mm 2 mps 652 mmHg 96%
    05:00 +16°C° 0 mm 2 mps 652 mmHg 96%
    06:00 +18°C° 0 mm 2 mps 652 mmHg 89%
    07:00 +19°C° 0 mm 3 mps 653 mmHg 81%
    08:00 +21°C° 0 mm 3 mps 654 mmHg 73%
    09:00 +25°C° 0 mm 3 mps 655 mmHg 62%
    10:00 +27°C° 0 mm 3 mps 655 mmHg 50%
    11:00 +30°C° 0 mm 4 mps 656 mmHg 39%
    12:00 +30°C° 0 mm 4 mps 655 mmHg 36%
    13:00 +32°C° 0 mm 4 mps 655 mmHg 33%
    14:00 +33°C° 0 mm 4 mps 654 mmHg 30%
    15:00 +32°C° 0 mm 4 mps 654 mmHg 34%
    16:00 +30°C° 0 mm 4 mps 654 mmHg 39%
    17:00 +29°C° 0 mm 5 mps 653 mmHg 43%
    18:00 +26°C° 0 mm 4 mps 653 mmHg 53%
    19:00 +23°C° 0 mm 4 mps 653 mmHg 63%
    20:00 +21°C° 0 mm 4 mps 653 mmHg 73%
    21:00 +20°C° 0 mm 4 mps 654 mmHg 77%
    22:00 +20°C° 0 mm 4 mps 654 mmHg 80%
    23:00 +19°C° 0 mm 4 mps 654 mmHg 84%

    Tomorrow, 23 March, Saturday

    Time Temperature Precipitation Wind Pressure Humidity
    00:00 +18°C° 0 mm 4 mps 654 mmHg 88%
    01:00 +18°C° 0 mm 3 mps 654 mmHg 91%
    02:00 +17°C° 0 mm 3 mps 654 mmHg 94%
    03:00 +17°C° 0 mm 3 mps 654 mmHg 95%
    04:00 +17°C° 0 mm 3 mps 653 mmHg 96%
    05:00 +17°C° 0 mm 3 mps 653 mmHg 96%
    06:00 +18°C° 0 mm 3 mps 654 mmHg 88%
    07:00 +20°C° 0 mm 4 mps 655 mmHg 80%
    08:00 +21°C° 0 mm 4 mps 655 mmHg 72%
    09:00 +23°C° 0 mm 4 mps 656 mmHg 63%
    10:00 +27°C° 0 mm 4 mps 656 mmHg 55%
    11:00 +29°C° 0 mm 4 mps 657 mmHg 46%
    12:00 +29°C° 0 mm 4 mps 656 mmHg 44%
    13:00 +30°C° 0 mm 4 mps 656 mmHg 42%
    14:00 +32°C° 0 mm 4 mps 655 mmHg 40%
    15:00 +30°C° 0 mm 4 mps 655 mmHg 44%
    16:00 +29°C° 0 mm 4 mps 654 mmHg 48%
    17:00 +28°C° 0 mm 4 mps 654 mmHg 52%
    18:00 +26°C° 0 mm 4 mps 654 mmHg 60%
    19:00 +23°C° 0 mm 4 mps 654 mmHg 69%
    20:00 +21°C° 0 mm 4 mps 654 mmHg 77%
    21:00 +20°C° 0 mm 4 mps 654 mmHg 81%
    22:00 +19°C° 0 mm 4 mps 654 mmHg 85%
    23:00 +19°C° 0 mm 4 mps 654 mmHg 88%

    Day after tomorrow, 24 March, Sunday

    Time Temperature Precipitation Wind Pressure Humidity
    00:00 +18°C° 0 mm 3 mps 654 mmHg 91%
    01:00 +18°C° 0 mm 3 mps 654 mmHg 93%
    02:00 +17°C° 0 mm 3 mps 653 mmHg 96%
    03:00 +17°C° 0 mm 3 mps 653 mmHg 95%
    04:00 +17°C° 0 mm 3 mps 653 mmHg 95%
    05:00 +17°C° 0 mm 3 mps 653 mmHg 95%
    06:00 +18°C° 0 mm 3 mps 654 mmHg 86%
    07:00 +19°C° 0 mm 4 mps 654 mmHg 77%
    08:00 +21°C° 0 mm 4 mps 655 mmHg 67%
    09:00 +23°C° 0 mm 4 mps 655 mmHg 56%
    10:00 +27°C° 0 mm 4 mps 656 mmHg 45%
    11:00 +29°C° 0 mm 4 mps 656 mmHg 34%
    12:00 +30°C° 0 mm 4 mps 656 mmHg 32%
    13:00 +31°C° 0 mm 3 mps 655 mmHg 30%
    14:00 +31°C° 0 mm 3 mps 654 mmHg 28%
    15:00 +30°C° 0 mm 3 mps 654 mmHg 32%
    16:00 +29°C° 0 mm 3 mps 653 mmHg 35%
    17:00 +29°C° 0 mm 4 mps 653 mmHg 39%
    18:00 +26°C° 0 mm 3 mps 653 mmHg 48%
    19:00 +24°C° 0 mm 3 mps 653 mmHg 58%
    20:00 +21°C° 0 mm 3 mps 653 mmHg 68%
    21:00 +20°C° 0 mm 3 mps 653 mmHg 72%
    22:00 +19°C° 0 mm 2 mps 653 mmHg 77%
    23:00 +18°C° 0 mm 2 mps 653 mmHg 82%

    25 March, Monday

    Time Temperature Precipitation Wind Pressure Humidity
    00:00 +19°C° 0 mm 1 mps 653 mmHg 84%
    01:00 +18°C° 0 mm 1 mps 652 mmHg 86%
    02:00 +18°C° 0 mm 1 mps 652 mmHg 89%
    03:00 +18°C° 0 mm 1 mps 652 mmHg 90%
    04:00 +16°C° 0 mm 1 mps 652 mmHg 91%
    05:00 +16°C° 0 mm 1 mps 651 mmHg 92%
    06:00 +19°C° 0 mm 1 mps 652 mmHg 83%
    07:00 +21°C° 0 mm 1 mps 653 mmHg 75%
    08:00 +23°C° 0 mm 1 mps 654 mmHg 66%
    09:00 +26°C° 0 mm 1 mps 655 mmHg 56%
    10:00 +28°C° 0 mm 1 mps 655 mmHg 45%
    11:00 +31°C° 0 mm 2 mps 655 mmHg 34%
    12:00 +32°C° 0 mm 2 mps 655 mmHg 31%
    13:00 +32°C° 0 mm 2 mps 654 mmHg 27%
    14:00 +34°C° 0 mm 2 mps 653 mmHg 24%
    15:00 +34°C° 0 mm 2 mps 653 mmHg 25%
    16:00 +33°C° 0 mm 3 mps 652 mmHg 27%
    17:00 +31°C° 0 mm 3 mps 652 mmHg 29%
    18:00 +28°C° 0 mm 3 mps 652 mmHg 37%
    19:00 +26°C° 0 mm 3 mps 652 mmHg 45%
    20:00 +22°C° 0 mm 3 mps 652 mmHg 53%
    21:00 +21°C° 0 mm 3 mps 652 mmHg 57%
    22:00 +20°C° 0 mm 2 mps 652 mmHg 60%
    23:00 +19°C° 0 mm 2 mps 652 mmHg 63%

    26 March, Tuesday

    Time Temperature Precipitation Wind Pressure Humidity
    00:00 +19°C° 0 mm 2 mps 652 mmHg 65%
    01:00 +18°C° 0 mm 2 mps 651 mmHg 67%
    02:00 +19°C° 0 mm 1 mps 651 mmHg 69%
    03:00 +18°C° 0 mm 1 mps 651 mmHg 72%
    04:00 +18°C° 0 mm 1 mps 651 mmHg 75%
    05:00 +18°C° 0 mm 1 mps 651 mmHg 79%
    06:00 +20°C° 0 mm 1 mps 652 mmHg 72%
    07:00 +21°C° 0 mm 0 mps 653 mmHg 65%
    08:00 +23°C° 0 mm 0 mps 654 mmHg 58%
    09:00 +27°C° 0 mm 1 mps 655 mmHg 49%
    10:00 +30°C° 0 mm 2 mps 655 mmHg 39%
    11:00 +33°C° 0 mm 3 mps 656 mmHg 30%
    12:00 +34°C° 0 mm 4 mps 655 mmHg 28%
    13:00 +35°C° 0 mm 4 mps 655 mmHg 26%
    14:00 +36°C° 0 mm 4 mps 654 mmHg 24%
    15:00 +35°C° 0 mm 4 mps 654 mmHg 27%
    16:00 +33°C° 0 mm 5 mps 654 mmHg 30%
    17:00 +32°C° 0 mm 5 mps 653 mmHg 33%
    18:00 +29°C° 0 mm 4 mps 653 mmHg 42%
    19:00 +27°C° 0 mm 4 mps 654 mmHg 51%
    20:00 +24°C° 0 mm 3 mps 654 mmHg 59%
    21:00 +24°C° 0 mm 3 mps 654 mmHg 65%
    22:00 +22°C° 0 mm 3 mps 654 mmHg 71%
    23:00 +21°C° 0 mm 2 mps 654 mmHg 77%

    27 March, Wednesday

    Time Temperature Precipitation Wind Pressure Humidity
    00:00 +20°C° 0 mm 2 mps 654 mmHg 80%
    01:00 +20°C° 0 mm 2 mps 654 mmHg 83%
    02:00 +19°C° 0 mm 2 mps 654 mmHg 86%
    03:00 +19°C° 0 mm 2 mps 654 mmHg 89%
    04:00 +18°C° 0 mm 2 mps 654 mmHg 91%
    05:00 +18°C° 0 mm 2 mps 654 mmHg 94%
    06:00 +20°C° 0 mm 2 mps 655 mmHg 86%
    07:00 +21°C° 0 mm 3 mps 656 mmHg 79%
    08:00 +22°C° 0 mm 3 mps 656 mmHg 71%
    09:00 +26°C° 0 mm 3 mps 657 mmHg 63%
    10:00 +28°C° 0 mm 4 mps 657 mmHg 54%
    11:00 +30°C° 0 mm 4 mps 658 mmHg 46%
    12:00 +32°C° 0 mm 4 mps 657 mmHg 43%
    13:00 +32°C° 0 mm 4 mps 657 mmHg 40%
    14:00 +33°C° 0 mm 4 mps 657 mmHg 38%
    15:00 +32°C° 0 mm 4 mps 656 mmHg 41%
    16:00 +30°C° 0 mm 4 mps 656 mmHg 45%
    17:00 +29°C° 0 mm 4 mps 655 mmHg 49%
    18:00 +27°C° 0 mm 4 mps 656 mmHg 59%
    19:00 +25°C° 0 mm 4 mps 656 mmHg 68%
    20:00 +22°C° 0 mm 4 mps 656 mmHg 78%
    21:00 +21°C° 0 mm 3 mps 656 mmHg 83%
    22:00 +20°C° 0 mm 3 mps 656 mmHg 88%
    23:00 +19°C° 0 mm 3 mps 656 mmHg 93%
    Show more